Location: Kampung Segan
(3.1399°N, 113.1002°E)
Time: 12:58:16
(UTC+00:00)

MOS 1-B Rocket - Pass Details

Date: 22 October 2025
Orbit: 891 x 1603 km, 99.0° (Epoch: 16 November)

Event Time Altitude Azimuth Distance (km) Brightness Sun altitude
Rises 20:00:26 0° 15° (NNE) 4,691 7.6 -32.8°
Reaches altitude 10° 20:03:16 10° 16° (NNE) 3,755 7.1 -32.2°
Maximum altitude 20:12:24 82° 103° (ESE) 1,618 5.0 -29.9°
Drops below altitude 10° 20:21:30 10° 190° (S) 3,737 7.0 -27.7°
Sets 20:24:18 0° 191° (S) 4,667 7.5 -27.0°
